Location: Old Broadwell Mill Observatory
(33.8015°N, 85.8137°W)
Time: 03:12:01
(UTC-05:00)

Amateur Radio Satellites - All Passes

Search period start: 02 May 2016 02:42
Search period end: 03 May 2016 02:42
Location: Old Broadwell Mill Observatory, 33.8015°N, 85.8137°W

Satellite Date Start Highest point End Downlink Frequencies (MHz)
Time Altitude Azimuth
GONETS M04 02 May 02:55:02 02:59:53 16° 293° (WNW) 03:04:46
ITAMSAT 1 02 May 03:00:08 03:04:56 37° 99° (E) 03:09:43 435.822/435.867
Gurwin Techsat 1B 02 May 03:09:14 03:14:31 68° 285° (WNW) 03:19:46 435.225
AO-7 02 May 03:18:32 03:24:53 24° 96° (E) 03:31:13 29.400- 29.500
MOZHAYETS 4 02 May 03:20:25 03:24:22 29° 71° (ENE) 03:28:19
CUSAT 1 02 May 03:21:02 03:27:52 40° 269° (W) 03:35:13 437.405
JAS-2 02 May 03:22:52 03:28:36 23° 297° (WNW) 03:34:22 435.910
KKS-1 02 May 03:23:53 03:28:14 55° 74° (ENE) 03:32:38 437.445
Oscar 19 02 May 03:24:06 03:27:40 19° 294° (WNW) 03:31:14 437.125/150
BEESAT 3 02 May 03:26:57 03:30:29 31° 56° (NE) 03:33:59 437.485
BEESAT 2 02 May 03:32:41 03:35:46 21° 53° (NE) 03:38:50 435.950
ITUPSAT 1 02 May 03:37:32 03:39:36 13° 267° (W) 03:41:40 437.325
STARS 02 May 03:43:18 03:47:31 45° 73° (ENE) 03:51:46 437.465
DANDE 02 May 03:54:17 04:00:41 42° 267° (W) 04:08:12 436.750
RS-15 02 May 04:09:00 04:15:50 16° 23° (NNE) 04:22:42 29.354- 29.394
ITAMSAT 1 02 May 04:40:14 04:44:07 22° 293° (WNW) 04:48:00 435.822/435.867
HORYU 2 02 May 04:46:32 04:50:20 28° 97° (E) 04:54:06 437.375
AIST 2 02 May 04:57:43 04:59:40 13° 49° (NE) 05:01:36 435.215
MOZHAYETS 4 02 May 04:58:03 05:01:30 21° 265° (W) 05:04:57
CUBESAT XI-V 02 May 05:02:36 05:06:51 39° 73° (ENE) 05:11:09 437.345
KKS-1 02 May 05:04:07 05:05:04 11° 268° (W) 05:06:02 437.445
BEESAT 3 02 May 05:05:23 05:07:54 17° 250° (WSW) 05:10:26 437.485
AO-7 02 May 05:09:51 05:18:03 64° 291° (WNW) 05:26:15 29.400- 29.500
BEESAT 2 02 May 05:10:15 05:13:34 26° 248° (WSW) 05:16:52 435.950
STARS 02 May 05:22:02 05:24:03 13° 267° (W) 05:26:05 437.465
YUBILEINY 02 May 05:24:46 05:32:28 34° 75° (ENE) 05:40:09 435.215
STRAND 1 02 May 06:01:07 06:04:00 15° 65° (ENE) 06:06:54 437.568
CUTE-I 02 May 06:02:22 06:06:08 19° 95° (E) 06:09:53 437.470
Cosmos 2491 02 May 06:02:57 06:10:41 36° 86° (E) 06:18:27 435.465 / 435.565
NOAA 18 02 May 06:07:15 06:11:59 30° 98° (E) 06:16:41 137.9125
BRITE-PL 02 May 06:16:56 06:21:56 31° 96° (E) 06:26:47 437.365/2234.400
RS-15 02 May 06:20:38 06:32:27 49° 52° (NE) 06:44:12 29.354- 29.394
HORYU 2 02 May 06:23:22 06:26:42 21° 291° (WNW) 06:30:01 437.375
SO-50 02 May 06:25:31 06:29:46 31° 112° (ESE) 06:34:05 436.795
AIST 2 02 May 06:34:24 06:38:26 53° 245° (WSW) 06:42:27 435.215
CUBESAT XI-V 02 May 06:41:35 06:44:22 16° 267° (W) 06:47:08 437.345
Cubesat XI-IV 02 May 06:45:20 06:50:33 53° 101° (E) 06:55:44 437.490
NOAA 15 02 May 06:46:21 06:51:41 86° 105° (ESE) 06:57:00 137.62
LilacSat-2 02 May 06:47:55 06:51:39 56° 100° (E) 06:55:20 437.200
AUBIESAT-1 02 May 07:00:30 07:02:12 13° 97° (E) 07:03:51 437.475
AO-7 02 May 07:06:55 07:09:11 11° 309° (NW) 07:11:28 29.400- 29.500
ISS 02 May 07:08:01 07:11:16 89° 315° (NW) 07:14:32 145.825
YUBILEINY 02 May 07:21:14 07:29:17 44° 272° (W) 07:37:22 435.215
Cosmos 2504 02 May 07:28:39 07:36:10 56° 81° (E) 07:44:11 435.465 / 435.565
GOMX 1 02 May 07:32:37 07:38:04 83° 101° (E) 07:43:14 467.674
DOVE 4 02 May 07:33:03 07:37:47 38° 97° (E) 07:42:15 437.250
STRAND 1 02 May 07:37:43 07:42:41 53° 260° (W) 07:47:41 437.568
CUTE-I 02 May 07:41:18 07:46:18 42° 288° (WNW) 07:51:17 437.470
NOAA 18 02 May 07:47:52 07:52:31 30° 292° (WNW) 07:57:10 137.9125
BRITE-PL 02 May 07:55:18 08:00:14 31° 290° (WNW) 08:05:06 437.365/2234.400
Cosmos 2491 02 May 07:59:03 08:07:15 43° 283° (WNW) 08:15:33 435.465 / 435.565
SEEDS 02 May 07:59:50 08:01:39 12° 93° (E) 08:03:27 437.485
SO-50 02 May 08:06:02 08:10:13 28° 307° (NW) 08:14:26 436.795
M-CUBED/EXP-1 PRIME 02 May 08:13:54 08:17:37 44° 291° (WNW) 08:21:03 437.505
CINEMA 3 02 May 08:22:09 08:26:23 36° 97° (E) 08:30:24 145.822/145.860
HO-68 02 May 08:22:51 08:29:37 44° 100° (E) 08:36:21 435.675
PRISM 02 May 08:23:39 08:27:42 80° 259° (W) 08:31:48 437.425
Cubesat XI-IV 02 May 08:26:54 08:30:07 16° 295° (WNW) 08:33:20 437.490
NOAA 15 02 May 08:30:16 08:30:40 10° 298° (WNW) 08:31:03 137.62
CANX-2 02 May 08:31:54 08:36:03 53° 100° (E) 08:40:10 2200.000
RS-15 02 May 08:33:24 08:44:51 48° 252° (WSW) 08:56:13 29.354- 29.394
AUBIESAT-1 02 May 08:33:27 08:36:51 31° 293° (WNW) 08:40:02 437.475
AAUSAT CUBESAT 2 02 May 08:35:08 08:38:07 19° 95° (E) 08:41:04 437.432
ISS 02 May 08:47:06 08:48:09 11° 332° (NNW) 08:49:13 145.825
Oscar 11 02 May 08:50:44 08:51:28 10° 92° (E) 08:52:13 145.826/435.025
PHONESAT 2.4 02 May 08:59:35 09:02:09 23° 145° (SE) 09:04:43 2401.200-2431.200
FUNcube-1 02 May 09:01:08 09:02:01 11° 92° (E) 09:02:54 145.935
CUTE 1.7 + AOD 2 02 May 09:04:49 09:09:00 67° 284° (WNW) 09:13:11 437.475
UWE-3 02 May 09:08:31 09:11:55 23° 96° (E) 09:15:15 435.000/436.395/437.385
DOVE 4 02 May 09:11:28 09:15:06 20° 293° (WNW) 09:18:37 437.250
GOMX 1 02 May 09:13:55 09:15:16 11° 298° (WNW) 09:16:37 467.674
CUBEBUG 2 02 May 09:14:02 09:18:06 41° 98° (E) 09:22:03 437.445
ANTELSAT 02 May 09:21:19 09:24:15 17° 68° (ENE) 09:27:10 437.575/2403.000
Cosmos 2504 02 May 09:23:11 09:29:00 24° 275° (W) 09:35:08 435.465 / 435.565
SEEDS 02 May 09:33:33 09:37:29 41° 286° (WNW) 09:41:26 437.485
COMPASS 1 02 May 09:38:06 09:42:08 51° 285° (WNW) 09:46:10 437.405
ZACube-1 02 May 09:40:21 09:44:15 37° 98° (E) 09:48:05 437.345
DELFI C3 02 May 09:53:49 09:57:17 28° 97° (E) 10:00:45 145.870
CINEMA 3 02 May 10:00:12 10:03:09 17° 293° (WNW) 10:06:01 145.822/145.860
AAUSAT CUBESAT 2 02 May 10:10:04 10:13:33 27° 288° (WNW) 10:17:02 437.432
CANX-2 02 May 10:10:37 10:11:23 10° 294° (WNW) 10:12:09 2200.000
HO-68 02 May 10:11:00 10:17:03 31° 295° (WNW) 10:23:05 435.675
UNISAT 6 02 May 10:13:40 10:18:17 66° 76° (ENE) 10:22:53 437.425
Oscar 11 02 May 10:23:40 10:27:51 51° 285° (WNW) 10:32:01 145.826/435.025
TIGRISAT 02 May 10:31:22 10:36:02 83° 255° (WSW) 10:40:41 435.000
FUNcube-1 02 May 10:34:30 10:38:30 46° 286° (WNW) 10:42:27 145.935
PHONESAT 2.4 02 May 10:35:46 10:38:51 53° 339° (NNW) 10:41:57 2401.200-2431.200
UWE-3 02 May 10:45:00 10:48:15 22° 290° (WNW) 10:51:27 435.000/436.395/437.385
HUMSAT D 02 May 10:49:04 10:53:06 58° 101° (E) 10:57:05 437.325/437.525
CUBEBUG 2 02 May 10:52:17 10:54:18 13° 293° (WNW) 10:56:17 437.445
ANTELSAT 02 May 10:56:13 11:00:36 40° 261° (W) 11:04:58 437.575/2403.000
QB50P2 02 May 10:59:07 11:03:06 38° 73° (ENE) 11:07:06 145.880/145.840
DUCHIFAT 1 02 May 10:59:48 11:03:37 33° 72° (ENE) 11:07:27 145.980
POLYITAN 1 02 May 11:01:15 11:05:15 39° 73° (ENE) 11:09:16 437.675
POPSAT HIP 1 02 May 11:03:59 11:08:00 41° 73° (ENE) 11:12:03 437.405
AIST 1 02 May 11:05:08 11:08:42 23° 77° (ENE) 11:12:14
QB50P1 02 May 11:07:12 11:11:17 46° 74° (ENE) 11:15:24 145.935-145.965
GONETS M04 02 May 11:08:57 11:16:52 37° 76° (ENE) 11:24:42
CUBEBUG 1 02 May 11:10:03 11:11:12 11° 92° (E) 11:12:22 437.445
ZACube-1 02 May 11:17:58 11:20:11 14° 292° (WNW) 11:22:22 437.345
50 SAT 02 May 11:24:41 11:27:12 18° 96° (E) 11:29:43 437.505
DELFI C3 02 May 11:29:21 11:31:54 17° 291° (WNW) 11:34:28 145.870
DX 1 02 May 11:32:57 11:36:03 19° 95° (E) 11:39:09 434.975-435.025
VELOX 1 02 May 11:33:40 11:37:10 22° 96° (E) 11:40:39 145.980
Cosmos 2499 02 May 11:37:08 11:43:47 29° 75° (ENE) 11:50:47 435.465 / 435.565
UKube-1 02 May 11:40:34 11:43:36 18° 95° (E) 11:46:37 .
NANOSAT C BR1 02 May 11:42:12 11:46:26 67° 259° (WSW) 11:50:42 145.865
BUGSAT 1 02 May 11:43:50 11:47:55 52° 75° (ENE) 11:52:05 437.445
AO-85 02 May 11:46:31 11:51:01 27° 110° (ESE) 11:55:35 145.980
JAS-2 02 May 11:46:55 11:50:46 18° 61° (ENE) 11:54:53 435.910
AISAT 02 May 12:04:57 12:09:22 56° 100° (E) 12:13:43 437.250
SPROUT 02 May 12:11:19 12:14:34 21° 95° (E) 12:17:49 437.525
PHONESAT 2.4 02 May 12:13:29 12:16:07 23° 356° (N) 12:18:44 2401.200-2431.200
ESTCUBE 1 02 May 12:21:12 12:25:42 68° 285° (WNW) 12:30:12 437.505/2401.250
DUCHIFAT 1 02 May 12:36:41 12:39:21 16° 266° (W) 12:42:02 145.980
QB50P2 02 May 12:36:45 12:39:01 14° 267° (W) 12:41:17 145.880/145.840
POLYITAN 1 02 May 12:38:57 12:41:11 14° 267° (W) 12:43:23 437.675
POPSAT HIP 1 02 May 12:41:53 12:43:56 13° 267° (W) 12:45:59 437.405
AIST 1 02 May 12:42:43 12:46:08 22° 271° (W) 12:49:34
CUBEBUG 1 02 May 12:43:25 12:47:45 52° 286° (WNW) 12:52:02 437.445
QB50P1 02 May 12:45:43 12:47:16 12° 267° (W) 12:48:48 145.935-145.965
TISAT 1 02 May 12:48:05 12:50:31 15° 94° (E) 12:52:54 437.305
Gurwin Techsat 1B 02 May 12:49:32 12:52:14 14° 64° (ENE) 12:54:55 435.225
Oscar 19 02 May 12:56:43 13:01:34 43° 72° (ENE) 13:06:27 437.125/150
50 SAT 02 May 12:58:04 13:00:54 22° 289° (WNW) 13:03:45 437.505
GONETS M04 02 May 13:05:39 13:13:36 41° 273° (W) 13:21:30
DX 1 02 May 13:08:24 13:12:14 30° 289° (WNW) 13:16:04 434.975-435.025
VELOX 1 02 May 13:09:49 13:13:33 27° 290° (WNW) 13:17:17 145.980
UKube-1 02 May 13:15:50 13:19:38 30° 289° (WNW) 13:23:25 .
AO-85 02 May 13:26:21 13:31:23 37° 305° (NW) 13:36:24 145.980
JAS-2 02 May 13:29:21 13:35:01 62° 260° (W) 13:41:28 435.910
Cosmos 2499 02 May 13:29:31 13:36:58 49° 270° (W) 13:44:56 435.465 / 435.565
ISS 02 May 13:39:27 13:41:50 18° 33° (NNE) 13:44:13 145.825
AISAT 02 May 13:43:52 13:45:18 11° 295° (WNW) 13:46:44 437.250
SPROUT 02 May 13:46:54 13:50:27 26° 289° (WNW) 13:54:00 437.525
PHONESAT 2.4 02 May 13:50:39 13:53:30 30° 13° (NNE) 13:56:22 2401.200-2431.200
ITUPSAT 1 02 May 14:02:16 14:05:34 18° 95° (E) 14:08:51 437.325
SWISSCUBE 02 May 14:11:21 14:15:22 27° 97° (E) 14:19:22 437.505
AO-7 02 May 14:14:00 14:20:16 25° 59° (ENE) 14:26:33 29.400- 29.500
ITAMSAT 1 02 May 14:14:18 14:19:05 39° 71° (ENE) 14:23:52 435.822/435.867
TISAT 1 02 May 14:22:24 14:26:15 35° 288° (WNW) 14:30:03 437.305
Gurwin Techsat 1B 02 May 14:26:21 14:31:35 63° 259° (WSW) 14:36:52 435.225
Oscar 19 02 May 14:37:30 14:41:00 18° 266° (W) 14:44:33 437.125/150
CUSAT 1 02 May 14:41:02 14:43:38 23° 88° (E) 14:46:45 437.405
BEESAT 02 May 14:44:05 14:48:46 56° 101° (E) 14:53:26 436.000
PCSat 02 May 14:44:17 14:48:48 27° 107° (ESE) 14:53:20 145.827
O/OREOS (USA 219) 02 May 14:50:53 14:55:29 88° 292° (WNW) 15:00:06 437.305
SO-50 02 May 15:02:37 15:04:07 11° 45° (NE) 15:05:35 436.795
ISS 02 May 15:15:20 15:18:23 37° 228° (SW) 15:21:25 145.825
KKS-1 02 May 15:20:17 15:22:42 14° 94° (E) 15:25:08 437.445
DANDE 02 May 15:20:36 15:22:39 19° 89° (E) 15:24:58 436.750
PHONESAT 2.4 02 May 15:27:23 15:30:31 63° 208° (SSW) 15:33:39 2401.200-2431.200
ITUPSAT 1 02 May 15:39:06 15:43:28 37° 288° (WNW) 15:47:49 437.325
STARS 02 May 15:39:10 15:40:21 11° 92° (E) 15:41:32 437.465
HORYU 2 02 May 15:41:38 15:44:31 17° 68° (ENE) 15:47:25 437.375
SWISSCUBE 02 May 15:49:07 15:53:01 26° 291° (WNW) 15:56:55 437.505
ITAMSAT 1 02 May 15:54:52 15:58:36 20° 265° (W) 16:02:23 435.822/435.867
AO-7 02 May 16:04:08 16:12:19 66° 255° (WSW) 16:20:35 29.400- 29.500
Cosmos 2491 02 May 16:20:29 16:24:13 13° 65° (ENE) 16:27:56 435.465 / 435.565
BEESAT 02 May 16:23:55 16:26:01 13° 295° (WNW) 16:28:09 436.000
CUSAT 1 02 May 16:24:22 16:25:56 12° 294° (WNW) 16:27:38 437.405
PCSat 02 May 16:27:10 16:32:01 33° 302° (WNW) 16:36:55 145.827
SO-50 02 May 16:40:32 16:45:14 82° 242° (WSW) 16:49:44 436.795
KKS-1 02 May 16:55:13 16:59:25 41° 287° (WNW) 17:03:35 437.445
MOZHAYETS 4 02 May 16:55:33 17:00:06 67° 284° (WNW) 17:04:37
CUBESAT XI-V 02 May 17:04:29 17:06:52 14° 93° (E) 17:09:14 437.345
STARS 02 May 17:12:41 17:16:57 51° 286° (WNW) 17:21:12 437.465
BEESAT 3 02 May 17:15:43 17:17:40 13° 109° (ESE) 17:19:37 437.485
HORYU 2 02 May 17:16:38 17:20:46 36° 261° (W) 17:24:54 437.375
CUTE-I 02 May 17:20:29 17:24:33 23° 67° (ENE) 17:28:38 437.470
JUGNU 02 May 17:23:39 17:26:40 14° 167° (SSE) 17:29:41 437.505
BRITE-PL 02 May 17:24:32 17:28:01 20° 67° (ENE) 17:31:42 437.365/2234.400
M-CUBED/EXP-1 PRIME 02 May 17:24:59 17:25:58 11° 60° (ENE) 17:26:57 437.505
LilacSat-2 02 May 17:27:09 17:29:39 17° 70° (ENE) 17:32:08 437.200
NOAA 18 02 May 17:29:33 17:34:39 40° 70° (ENE) 17:39:45 137.9125
AUBIESAT-1 02 May 17:42:30 17:44:48 14° 62° (ENE) 17:47:05 437.475
NOAA 15 02 May 18:02:26 18:07:41 88° 256° (WSW) 18:13:00 137.62
Cubesat XI-IV 02 May 18:03:24 18:08:38 60° 74° (ENE) 18:13:53 437.490
Cosmos 2491 02 May 18:13:33 18:22:24 81° 83° (E) 18:31:10 435.465 / 435.565
YUBILEINY 02 May 18:20:28 18:28:35 45° 88° (E) 18:36:41 435.215
DOVE 4 02 May 18:34:14 18:38:25 27° 69° (ENE) 18:42:44 437.250
GOMX 1 02 May 18:36:07 18:40:55 56° 74° (ENE) 18:46:03 467.674
CUBESAT XI-V 02 May 18:39:55 18:44:26 47° 286° (WNW) 18:48:56 437.345
HO-68 02 May 18:48:38 18:53:53 23° 62° (ENE) 18:59:07 435.675
BEESAT 3 02 May 18:51:20 18:55:00 37° 303° (WNW) 18:58:42 437.485
M-CUBED/EXP-1 PRIME 02 May 18:55:08 18:59:51 78° 254° (WSW) 19:04:34 437.505
BEESAT 2 02 May 18:57:53 19:01:47 57° 300° (WNW) 19:05:44 435.950
CUTE-I 02 May 18:59:25 19:04:19 37° 261° (W) 19:09:15 437.470
LilacSat-2 02 May 19:00:23 19:03:42 27° 263° (W) 19:07:02 437.200
BRITE-PL 02 May 19:01:52 19:06:09 36° 264° (W) 19:10:48 437.365/2234.400
JUGNU 02 May 19:10:45 19:14:59 20° 177° (S) 19:19:14 437.505
NOAA 18 02 May 19:11:08 19:15:22 22° 264° (W) 19:19:36 137.9125
AUBIESAT-1 02 May 19:14:12 19:18:47 57° 255° (WSW) 19:23:20 437.475
CINEMA 3 02 May 19:19:33 19:23:33 24° 69° (ENE) 19:27:33 145.822/145.860
CANX-2 02 May 19:21:23 19:24:43 23° 71° (ENE) 19:28:03 2200.000
Cubesat XI-IV 02 May 19:46:29 19:49:01 13° 267° (W) 19:51:33 437.490
STRAND 1 02 May 19:51:57 19:57:04 72° 102° (ESE) 20:02:10 437.568
CUTE 1.7 + AOD 2 02 May 19:53:22 19:57:26 49° 75° (ENE) 20:01:31 437.475
UWE-3 02 May 20:02:33 20:05:03 14° 67° (ENE) 20:07:31 435.000/436.395/437.385
Cosmos 2504 02 May 20:02:59 20:10:00 50° 91° (E) 20:16:51 435.465 / 435.565
CUBEBUG 2 02 May 20:08:09 20:11:59 25° 71° (ENE) 20:15:47 437.445
PRISM 02 May 20:09:58 20:12:54 18° 95° (E) 20:15:50 437.425
SRMSAT 02 May 20:10:14 20:14:03 17° 170° (S) 20:17:51 437.500
DOVE 4 02 May 20:11:31 20:15:54 30° 264° (W) 20:20:30 437.250
Cosmos 2491 02 May 20:13:04 20:18:03 17° 280° (W) 20:23:03 435.465 / 435.565
GOMX 1 02 May 20:16:59 20:19:23 13° 270° (W) 20:21:51 467.674
YUBILEINY 02 May 20:17:44 20:25:24 34° 285° (WNW) 20:33:07 435.215
SEEDS 02 May 20:20:51 20:25:00 78° 78° (ENE) 20:29:11 437.485
COMPASS 1 02 May 20:24:37 20:28:40 59° 76° (ENE) 20:32:45 437.405
AIST 2 02 May 20:27:51 20:31:58 82° 117° (ESE) 20:36:07 435.215
ZACube-1 02 May 20:32:40 20:36:00 20° 70° (ENE) 20:39:19 437.345
HO-68 02 May 20:33:57 20:41:00 61° 258° (WSW) 20:48:05 435.675
DELFI C3 02 May 20:39:04 20:39:33 10° 67° (ENE) 20:40:03 145.870
RS-15 02 May 20:39:29 20:49:37 43° 107° (ESE) 21:00:13 29.354- 29.394
AAUSAT CUBESAT 2 02 May 20:55:34 20:59:40 69° 259° (W) 21:03:46 437.432
CINEMA 3 02 May 20:56:02 21:00:26 32° 263° (W) 21:04:55 145.822/145.860
CANX-2 02 May 20:57:07 21:00:27 23° 264° (W) 21:03:48 2200.000
JUGNU 02 May 20:59:19 21:03:21 19° 187° (S) 21:07:23 437.505
Oscar 11 02 May 21:14:02 21:18:20 71° 76° (ENE) 21:22:37 145.826/435.025
FUNcube-1 02 May 21:25:13 21:29:45 79° 77° (ENE) 21:34:14 145.935
CUTE 1.7 + AOD 2 02 May 21:32:49 21:33:30 10° 268° (W) 21:34:11 437.475
STRAND 1 02 May 21:33:54 21:35:34 12° 297° (WNW) 21:37:14 437.568
UWE-3 02 May 21:36:35 21:41:05 47° 261° (W) 21:45:31 435.000/436.395/437.385
HUMSAT D 02 May 21:36:51 21:40:18 25° 71° (ENE) 21:43:44 437.325/437.525
CUBEBUG 2 02 May 21:44:24 21:48:26 28° 264° (W) 21:52:27 437.445
PRISM 02 May 21:44:37 21:48:12 28° 289° (WNW) 21:51:45 437.425
Cosmos 2504 02 May 21:58:00 22:03:35 23° 287° (WNW) 22:09:07 435.465 / 435.565
SRMSAT 02 May 21:58:11 22:02:34 21° 180° (S) 22:06:56 437.500
AO-85 02 May 22:02:15 22:06:55 75° 60° (ENE) 22:11:08 145.980
ZACube-1 02 May 22:08:03 22:12:04 30° 263° (W) 22:16:03 437.345
DELFI C3 02 May 22:10:10 22:13:58 46° 261° (W) 22:17:46 145.870
UNISAT 6 02 May 22:10:41 22:13:32 17° 94° (E) 22:16:20 437.425
DX 1 02 May 22:27:04 22:27:56 11° 65° (ENE) 22:28:49 434.975-435.025
TIGRISAT 02 May 22:27:37 22:31:12 26° 96° (E) 22:34:45 435.000
VELOX 1 02 May 22:28:43 22:30:44 13° 66° (ENE) 22:32:45 145.980
JUGNU 02 May 22:50:06 22:51:40 11° 196° (SSW) 22:53:14 437.505
RS-15 02 May 22:50:53 23:01:42 51° 307° (NW) 23:13:12 29.354- 29.394
ANTELSAT 02 May 22:51:46 22:56:01 55° 100° (E) 23:00:10 437.575/2403.000
AISAT 02 May 22:58:41 23:02:33 30° 71° (ENE) 23:06:28 437.250
SPROUT 02 May 23:03:38 23:04:29 10° 66° (ENE) 23:05:20 437.525
HUMSAT D 02 May 23:12:35 23:15:50 21° 264° (W) 23:19:05 437.325/437.525
ESTCUBE 1 02 May 23:16:33 23:20:59 67° 75° (ENE) 23:25:26 437.505/2401.250
NANOSAT C BR1 02 May 23:31:06 23:34:35 25° 96° (E) 23:38:03 145.865
AIST 1 02 May 23:31:13 23:33:54 16° 87° (E) 23:36:38
50 SAT 02 May 23:31:55 23:35:35 89° 48° (NE) 23:39:15 437.505
CUBEBUG 1 02 May 23:35:01 23:39:21 76° 77° (ENE) 23:43:46 437.445
PCSat 02 May 23:37:48 23:39:27 11° 47° (NE) 23:41:08 145.827
UNISAT 6 02 May 23:46:28 23:50:17 31° 288° (WNW) 23:54:02 437.425
SRMSAT 02 May 23:47:25 23:51:05 17° 191° (S) 23:54:44 437.500
DX 1 02 May 23:59:18 00:03:34 58° 259° (W) 00:07:54 434.975-435.025
VELOX 1 03 May 00:02:28 00:06:44 48° 260° (W) 00:11:02 145.980
TIGRISAT 03 May 00:04:30 00:07:44 21° 290° (WNW) 00:10:55 435.000
GONETS M04 03 May 00:04:31 00:12:52 49° 89° (E) 00:21:13
UKube-1 03 May 00:05:46 00:10:01 60° 259° (W) 00:14:19 .
Cosmos 2499 03 May 00:11:05 00:16:19 23° 85° (E) 00:21:31 435.465 / 435.565
DUCHIFAT 1 03 May 00:22:55 00:27:08 76° 284° (WNW) 00:31:18 145.980
QB50P2 03 May 00:23:20 00:27:32 63° 284° (WNW) 00:31:41 145.880/145.840
POLYITAN 1 03 May 00:25:31 00:29:41 61° 285° (WNW) 00:33:49 437.675
POPSAT HIP 1 03 May 00:28:06 00:32:17 59° 285° (WNW) 00:36:25 437.405
QB50P1 03 May 00:31:23 00:35:31 52° 285° (WNW) 00:39:35 145.935-145.965
ANTELSAT 03 May 00:31:24 00:32:11 10° 295° (WNW) 00:32:57 437.575/2403.000
SPROUT 03 May 00:35:40 00:39:54 57° 260° (W) 00:44:09 437.525
AISAT 03 May 00:35:50 00:39:02 19° 265° (W) 00:42:15 437.250
JAS-2 03 May 00:42:38 00:49:09 28° 94° (E) 00:55:32 435.910
BUGSAT 1 03 May 01:04:51 01:08:55 49° 286° (WNW) 01:12:53 437.445
O/OREOS (USA 219) 03 May 01:04:54 01:09:26 89° 268° (W) 01:13:55 437.305
ITUPSAT 1 03 May 01:06:13 01:08:48 15° 66° (ENE) 01:11:23 437.325
NANOSAT C BR1 03 May 01:06:58 01:10:10 21° 290° (WNW) 01:13:20 145.865
AIST 1 03 May 01:07:24 01:11:12 30° 282° (WNW) 01:15:02
TISAT 1 03 May 01:09:25 01:13:40 83° 257° (WSW) 01:17:57 437.305
RS-15 03 May 01:11:32 01:18:06 16° 337° (NNW) 01:24:52 29.354- 29.394
Oscar 19 03 May 01:12:56 01:16:48 21° 95° (E) 01:20:38 437.125/150
SWISSCUBE 03 May 01:14:36 01:18:04 21° 68° (ENE) 01:21:33 437.505
CUSAT 1 03 May 01:15:38 01:22:03 30° 74° (ENE) 01:28:52 437.405
PCSat 03 May 01:18:11 01:23:39 85° 68° (ENE) 01:29:03 145.827
BEESAT 03 May 01:46:39 01:51:06 41° 72° (ENE) 01:55:33 436.000
DANDE 03 May 01:58:21 02:04:26 32° 77° (ENE) 02:11:26 436.750
Cosmos 2499 03 May 02:02:04 02:08:54 49° 281° (W) 02:15:43 435.465 / 435.565
GONETS M04 03 May 02:02:14 02:09:50 32° 286° (WNW) 02:17:28
JAS-2 03 May 02:26:43 02:34:18 55° 289° (WNW) 02:41:47 435.910
ITAMSAT 1 03 May 02:31:50 02:35:27 19° 95° (E) 02:39:05 435.822/435.867
